DW2070 Weather Reports


Display with metric or nautical units.
time (UTC)temp
F
wind
direction
speed
MPH
gust
MPH
rain 1hr
in
rain 24hr
in
rain mn
in
humidity
%
barometer
mb
20260505091003 57 0 0.0 0.0 0.00 0.00 0.00 80 1014.6
20260505090004 58 0 0.0 0.0 0.00 0.00 0.00 80 1014.8
20260505085003 58 233 1.0 3.0 0.00 0.00 0.00 80 1015.0
20260505084003 58 234 1.0 3.0 0.00 0.00 0.00 80 1014.9
20260505083004 58 235 1.0 3.0 0.00 0.00 0.00 79 1015.0
20260505082004 58 235 1.0 3.0 0.00 0.00 0.00 79 1015.1
20260505081004 58 236 1.0 3.0 0.00 0.00 0.00 79 1015.2
20260505080004 58 237 1.0 3.0 0.00 0.00 0.00 79 1015.1
20260505075004 58 0 0.0 2.0 0.00 0.00 0.00 79 1015.2
20260505074025 58 0 0.0 2.0 0.00 0.00 0.00 78 1015.3
20260505073004 58 237 0.0 3.0 0.00 0.00 0.00 78 1015.2
20260505072004 58 237 0.0 2.0 0.00 0.00 0.00 78 1015.2
20260505071004 58 238 1.0 3.0 0.00 0.00 0.00 77 1015.4
20260505070005 58 239 1.0 4.0 0.00 0.00 0.00 77 1015.2
20260505065004 58 240 1.0 3.0 0.00 0.00 0.00 77 1015.3
20260505064004 58 240 1.0 3.0 0.00 0.00 0.00 76 1015.3
20260505063004 58 241 2.0 4.0 0.00 0.00 0.00 75 1015.4
20260505062004 58 241 1.0 5.0 0.00 0.00 0.00 75 1015.2
20260505061025 58 240 1.0 4.0 0.00 0.00 0.00 74 1015.3
20260505060004 58 240 2.0 5.0 0.00 0.00 0.00 74 1015.3
20260505055004 58 238 2.0 4.0 0.00 0.00 0.00 74 1015.3
20260505054004 58 250 2.0 5.0 0.00 0.00 0.00 74 1015.4
20260505053004 58 254 2.0 5.0 0.00 0.00 0.00 74 1015.4
20260505051004 58 255 2.0 5.0 0.00 0.00 0.00 75 1015.5
20260505040005 60 268 2.0 8.0 0.00 0.00 0.00 72 1015.3
20260505035004 60 290 3.0 8.0 0.00 0.00 0.00 71 1015.2
20260505034004 60 252 3.0 9.0 0.00 0.00 0.00 72 1015.3
20260505033004 60 262 3.0 10.0 0.00 0.00 0.00 72 1015.2
20260505032004 60 269 4.0 10.0 0.00 0.00 0.00 72 1015.2
20260505031025 60 261 3.0 10.0 0.00 0.00 0.00 73 1015.1
20260505030025 60 274 2.0 9.0 0.00 0.00 0.00 74 1015.0
20260505025025 61 308 2.0 6.0 0.00 0.00 0.00 74 1014.9
20260505024025 61 279 3.0 8.0 0.00 0.00 0.00 74 1014.8
20260505023004 61 292 3.0 8.0 0.00 0.00 0.00 73 1014.8
20260505022004 61 284 3.0 9.0 0.00 0.00 0.00 71 1014.7
20260505021025 61 256 6.0 15.0 0.00 0.00 0.00 71 1014.8
20260505020004 62 248 7.0 15.0 0.00 0.00 0.00 69 1014.9
20260505015025 62 254 5.0 12.0 0.00 0.00 0.00 69 1014.9
20260505014004 62 249 5.0 11.0 0.00 0.00 0.00 69 1015.0
20260505013004 63 278 5.0 11.0 0.00 0.00 0.00 69 1015.1
20260505012004 63 256 5.0 9.0 0.00 0.00 0.00 69 1015.1
20260505011004 63 254 4.0 14.0 0.00 0.00 0.00 69 1015.2
20260505010004 63 255 4.0 10.0 0.00 0.00 0.00 69 1015.3
20260505005025 63 258 4.0 9.0 0.00 0.00 0.00 69 1015.3
20260505004004 63 237 6.0 12.0 0.00 0.00 0.00 70 1015.4
20260505003025 63 239 6.0 12.0 0.00 0.00 0.00 70 1015.3
20260505002004 64 249 7.0 14.0 0.00 0.00 0.00 70 1015.3
20260505001004 64 242 7.0 15.0 0.00 0.00 0.00 68 1015.2
20260505000004 66 237 6.0 14.0 0.00 0.00 0.00 65 1015.1
20260504235004 65 227 5.0 14.0 0.00 0.00 0.00 65 1014.9
20260504234004 66 229 5.0 15.0 0.00 0.00 0.00 63 1014.9
20260504233025 67 238 5.0 14.0 0.00 0.00 0.00 59 1014.9
20260504232004 68 233 6.0 13.0 0.00 0.00 0.00 60 1015.1
20260504231025 69 248 6.0 14.0 0.00 0.00 0.00 59 1014.9
20260504230004 68 250 6.0 13.0 0.00 0.00 0.00 61 1015.0
20260504225004 67 240 6.0 16.0 0.00 0.00 0.00 62 1015.2
20260504224004 67 262 7.0 13.0 0.00 0.00 0.00 62 1015.3
20260504223004 67 252 7.0 15.0 0.00 0.00 0.00 60 1015.4
20260504222025 68 240 8.0 15.0 0.00 0.00 0.00 58 1015.4
20260504221003 67 246 6.0 15.0 0.00 0.00 0.00 58 1015.7
20260504220004 69 231 6.0 15.0 0.00 0.00 0.00 57 1015.8
20260504215004 69 246 8.0 14.0 0.00 0.00 0.00 58 1015.9
20260504214004 68 240 8.0 17.0 0.00 0.00 0.00 57 1016.0
20260504213004 69 239 8.0 16.0 0.00 0.00 0.00 56 1016.1
20260504212003 68 251 9.0 18.0 0.00 0.00 0.00 57 1016.0
20260504211004 68 246 8.0 17.0 0.00 0.00 0.00 57 1016.1
20260504210025 68 251 8.0 17.0 0.00 0.00 0.00 56 1016.0
20260504204004 70 249 6.0 16.0 0.00 0.00 0.00 54 1016.0
20260504203004 70 245 6.0 16.0 0.00 0.00 0.00 54 1016.0
20260504202025 69 253 7.0 16.0 0.00 0.00 0.00 55 1016.0
20260504201003 69 246 7.0 16.0 0.00 0.00 0.00 54 1016.0
20260504200003 69 241 6.0 15.0 0.00 0.00 0.00 55 1015.9
20260504195004 69 242 6.0 14.0 0.00 0.00 0.00 54 1016.0
20260504194003 68 238 7.0 11.0 0.00 0.00 0.00 54 1015.9
20260504193003 68 252 8.0 14.0 0.00 0.00 0.00 53 1016.0
20260504192024 69 240 6.0 16.0 0.00 0.00 0.00 51 1015.9
20260504191024 69 255 6.0 14.0 0.00 0.00 0.00 51 1015.9
20260504190004 69 234 6.0 13.0 0.00 0.00 0.00 52 1015.9
20260504185024 69 237 5.0 13.0 0.00 0.00 0.00 51 1016.1
20260504184003 69 248 6.0 12.0 0.00 0.00 0.00 52 1016.1
20260504183004 69 257 5.0 11.0 0.00 0.00 0.00 51 1016.2
20260504182025 68 251 6.0 11.0 0.00 0.00 0.00 52 1016.2
20260504181003 68 250 5.0 13.0 0.00 0.00 0.00 54 1016.3
20260504180003 68 264 5.0 13.0 0.00 0.00 0.00 53 1016.2
20260504175024 68 262 5.0 11.0 0.00 0.00 0.00 54 1016.0
20260504172003 68 245 5.0 12.0 0.00 0.00 0.00 54 1015.9
20260504171004 68 255 4.0 10.0 0.00 0.00 0.00 53 1015.9
20260504151003 58 57 2.0 4.0 0.00 0.00 0.00 83 1015.2
20260504141024 53 271 1.0 4.0 0.00 0.00 0.00 87 1015.2